TJS-2

Last updated on Sun Jan 18 2026 00:02:47 GMT+0000 (Coordinated Universal Time)

1 41911U 17001A 26017.62294624 .00000009 00000+0 00000+0 0 9993 2 41911 0.4437 87.7401 0002041 221.5956 98.5100 1.00271604 33202
UTC large
Height (km)
Speed (km/s)
/
Latitude / Longitude
Inclination (degrees)
Orbital Period (minutes)
Azimuth
Elevation
Range (km)
Doppler Factor

Next 0 passes for location: London (51.5072 / 0.1276)

Sorry there are no passes over London.